Weather History for El Paso, TX

Change the Weather History Date:

Tuesday, September 30, 2014

  Actual Average Record
Temperature  
Mean Temperature 76 °F 71 °F  
Max Temperature 86 °F 83 °F 97 °F (1994)
Min Temperature 65 °F 58 °F 41 °F (1945)
Degree Days  
Heating Degree Days 0 0  
Month to date heating degree days 0 0  
Since 1 July heating degree days 0 4  
Cooling Degree Days 11 6  
Month to date cooling degree days 316 317  
Year to date cooling degree days 2535 2246  
Growing Degree Days 25 (Base 50)    
Moisture  
Dew Point 50 °F    
Average Humidity 42    
Maximum Humidity 63    
Minimum Humidity 20    
Precipitation  
Precipitation 0.00 in 0.04 in 2.14 in (1982)
Month to date precipitation 4.23 1.51  
Year to date precipitation 7.36 7.83  
Snow  
Snow 0.00 in - - ()
Month to date snowfall 0.0  
Since 1 July snowfall 0.0  
Since 1 September snowfall 0.0  
Snow Depth 0.00 in    
Sea Level Pressure  
Sea Level Pressure 29.72 in    
Wind  
Wind Speed 9 mph (WSW)    
Max Wind Speed 21 mph    
Max Gust Speed 30 mph    
Visibility 10 miles    
Events      
T = Trace of Precipitation, MM = Missing Value Source: NWS Daily Summary

Daily Weather History Graph

Daily Weather History Graph

Search for Another Location

Airport:

Trip Planner

Search our weather history database for the weather conditions in past years. The results will help you decide how hot, cold, wet, or windy it might be!

Date:

Astronomy

Sep. 30, 2014 Rise Set
Actual Time 6:58 AM MDT 6:51 PM MDT
Civil Twilight 6:34 AM MDT 7:15 PM MDT
Nautical Twilight 6:06 AM MDT 7:44 PM MDT
Astronomical Twilight 5:37 AM MDT 8:12 PM MDT
Moon 12:53 PM MDT (9/30) 11:40 PM MDT (9/30)
Length of Visible Light 12h 41m
Length of Day
11h 52m
Waxing Crescent, 38% of the Moon is Illuminated
Sep 30
Waxing Crescent
Oct 1
First Quarter
Oct 8
Full
Oct 15
Last Quarter
Oct 23
New

Hourly Weather History & Observations

Time (MDT) Temp. Heat Index Dew Point Humidity Pressure Visibility Wind Dir Wind Speed Gust Speed Precip Events Conditions
12:51 AM 73.0 °F - 57.0 °F 57% 29.72 in 10.0 mi South 9.2 mph - N/A   Partly Cloudy
1:51 AM 75.9 °F - 55.0 °F 48% 29.71 in 10.0 mi West 11.5 mph - N/A   Partly Cloudy
2:51 AM 73.9 °F - 55.0 °F 52% 29.71 in 10.0 mi WSW 10.4 mph - N/A   Partly Cloudy
3:51 AM 72.0 °F - 55.0 °F 55% 29.70 in 10.0 mi WSW 9.2 mph - N/A   Partly Cloudy
4:51 AM 70.0 °F - 54.0 °F 57% 29.72 in 10.0 mi SW 6.9 mph - N/A   Partly Cloudy
5:51 AM 70.0 °F - 52.0 °F 53% 29.73 in 10.0 mi North 3.5 mph - N/A   Clear
6:51 AM 66.0 °F - 54.0 °F 65% 29.75 in 10.0 mi South 6.9 mph - N/A   Partly Cloudy
7:51 AM 68.0 °F - 55.0 °F 63% 29.76 in 10.0 mi South 4.6 mph - N/A   Partly Cloudy
8:51 AM 72.0 °F - 53.1 °F 51% 29.76 in 10.0 mi South 6.9 mph - N/A   Partly Cloudy
9:51 AM 77.0 °F - 48.9 °F 37% 29.76 in 10.0 mi WNW 9.2 mph - N/A   Partly Cloudy
10:51 AM 79.0 °F - 51.1 °F 38% 29.75 in 10.0 mi West 13.8 mph - N/A   Clear
11:51 AM 81.0 °F - 52.0 °F 36% 29.74 in 10.0 mi WSW 13.8 mph 24.2 mph N/A   Partly Cloudy
12:51 PM 82.9 °F - 50.0 °F 32% 29.71 in 10.0 mi SW 16.1 mph 24.2 mph N/A   Partly Cloudy
1:51 PM 84.0 °F - 48.0 °F 28% 29.67 in 10.0 mi WSW 17.3 mph - N/A   Partly Cloudy
2:51 PM 84.0 °F - 46.0 °F 26% 29.65 in 10.0 mi West 9.2 mph 19.6 mph N/A   Partly Cloudy
3:51 PM 84.9 °F - 45.0 °F 25% 29.63 in 10.0 mi WSW 11.5 mph 17.3 mph N/A   Partly Cloudy
4:51 PM 84.9 °F - 46.9 °F 27% 29.62 in 10.0 mi West 12.7 mph - N/A   Partly Cloudy
5:51 PM 84.9 °F - 48.0 °F 28% 29.62 in 10.0 mi NW 13.8 mph 17.3 mph N/A   Partly Cloudy
6:51 PM 82.4 °F - 46.4 °F 28% 29.84 in 10.0 mi WNW 11.5 mph - N/A   Partly Cloudy
7:51 PM 84.0 °F 82.5 °F 53.1 °F 34% 29.68 in 10.0 mi West 6.9 mph - N/A   Partly Cloudy
8:51 PM 78.8 °F - 46.4 °F 32% 29.87 in 10.0 mi NW 11.5 mph - N/A   Clear
9:51 PM 75.2 °F - 39.2 °F 27% 29.88 in 10.0 mi NE 5.8 mph - N/A   Clear
10:51 PM 77.0 °F - 57.0 °F 50% 29.72 in 10.0 mi South 6.9 mph - N/A   Partly Cloudy
11:51 PM 73.9 °F - 57.0 °F 55% 29.73 in 10.0 mi South 5.8 mph - N/A   Scattered Clouds